カタログに戻る

STARLINK-36304

運用中通信VLEO
NORAD 68550·PAYLOAD·🇺🇸 United States

打ち上げ Apr 2, 2026 から Cape Canaveral Space Force Station

Loading…

次のパス (今後24時間)

TLE

最新Source: CelesTrak SupGP

元期: Sep 14, 2026, 21:21 UTC

1 68550C 26070J   26257.89006944  .00016133  00000+0  47624-3 0  2577
2 68550  53.1576 199.9996 0001318  96.4191 325.1482 15.34409495    18

AllMySatでSTARLINK-36304をリアルタイム追跡

Download on the App Store